Lapse_Rate
7.1 7.0 6.8 6.7 6.6 6.5 6.4 6.4 6.4 6.7 6.8 6.7 6.6 6.4 6.3 6.2 6.1 6.1 6.1 6.0 6.0 5.9 5.7 5.5 5.3 5.3 5.3 5.2 5.5 5.6 5.4 5.3 5.4 5.6 5.5 5.5 5.5 5.4 5.6 5.6 5.4 5.2 5.1
7.4 7.1 6.9 6.8 6.8 6.8 6.6 6.5 6.5 7.0 7.0 6.9 6.8 6.6 6.5 6.4 6.3 6.2 6.2 6.2 6.2 6.2 6.2 6.0 5.7 5.6 5.7 5.7 5.7 5.7 5.8 5.8 5.8 5.7 5.7 5.5 5.2 5.1 5.1 5.2 5.4 5.4 5.5
7.4 7.3 7.1 7.0 7.2 6.9 6.9 6.9 6.8 7.2 7.1 6.9 6.6 6.4 6.3 6.3 6.4 6.4 6.3 6.4 6.3 6.2 6.2 6.0 5.8 5.8 5.9 5.9 5.9 5.8 5.8 5.8 5.7 5.5 5.4 5.4 5.2 5.1 5.1 5.2 5.1 5.4 5.4
7.4 7.3 7.4 7.4 7.4 7.1 6.9 6.8 6.9 7.2 7.0 6.8 6.7 6.5 6.4 6.5 6.4 6.3 6.3 6.4 6.2 6.0 6.1 6.1 5.9 5.7 5.6 5.7 5.7 5.7 5.6 5.4 5.4 5.4 5.3 5.3 5.4 5.4 5.3 5.1 4.9 5.0 5.2
7.6 7.6 7.6 7.6 7.4 7.1 7.0 6.9 7.0 7.2 6.9 6.8 6.7 6.5 6.5 6.5 6.3 6.3 6.4 6.5 6.4 5.9 5.9 6.0 5.9 5.8 5.4 5.3 5.5 5.4 5.3 5.5 5.4 5.2 5.2 5.1 5.1 5.0 5.0 5.0 5.0 5.0 5.0
7.9 7.8 7.8 7.8 7.7 7.5 7.3 7.2 7.0 7.3 7.0 6.9 6.7 6.6 6.6 6.3 6.3 6.3 6.3 6.5 6.2 6.1 5.9 5.8 5.7 5.5 5.3 5.5 5.6 5.5 5.3 5.1 5.1 4.6 4.5 4.4 4.4 4.7 4.8 5.1 5.5 5.6 5.6
7.9 7.7 7.7 7.8 7.7 7.4 7.0 6.3 7.0 7.3 6.8 6.2 6.1 6.3 6.3 6.1 6.1 6.1 6.4 6.4 5.9 5.6 5.5 5.4 5.3 5.6 5.6 5.6 5.6 5.2 5.0 4.7 4.6 4.4 4.3 4.5 4.6 4.9 5.2 5.3 5.3 5.4 5.5
8.3 8.0 7.8 7.8 7.7 7.2 6.9 6.5 6.4 7.1 6.9 6.1 6.0 6.7 6.5 6.0 6.1 6.2 6.1 6.0 5.9 5.8 5.6 5.3 5.6 5.7 5.6 5.4 5.2 4.8 4.5 4.6 4.5 4.5 4.5 4.5 4.7 4.7 4.9 5.0 4.9 4.9 4.7
8.4 8.2 8.0 7.7 7.6 7.8 7.6 5.9 5.5 6.2 6.5 6.3 6.2 6.5 6.3 5.9 5.9 6.1 5.9 5.9 5.7 5.9 5.8 5.8 5.8 5.7 5.5 5.0 4.7 4.5 4.3 4.4 4.4 4.3 4.3 4.4 4.3 4.0 4.3 4.3 4.1 4.3 4.3
8.5 8.1 7.9 7.6 7.5 7.2 6.8 6.2 6.0 5.5 5.8 5.6 6.0 6.0 5.6 5.6 5.7 5.7 5.8 5.7 5.7 5.9 5.8 5.8 5.5 5.1 4.9 4.7 4.7 4.7 4.6 4.5 4.2 4.1 3.8 3.6 3.8 3.7 3.7 3.7 3.6 3.6 3.4
7.9 7.1 4.4 6.2 6.6 6.9 6.7 6.6 5.9 5.3 5.2 5.8 5.8 5.4 5.2 5.4 5.5 5.7 5.7 5.5 5.8 5.5 5.5 5.3 4.8 4.6 4.6 4.6 4.6 4.9 5.0 5.0 4.6 4.4 4.4 4.3 4.1 4.0 3.6 3.6 3.3 3.4 3.8
8.0 8.3 5.0 5.5 5.3 6.6 6.7 6.1 5.6 5.5 5.4 5.7 5.1 5.0 4.8 5.0 5.3 5.2 5.3 5.4 5.3 5.2 5.0 4.6 4.5 4.3 4.0 4.2 4.3 4.6 4.6 4.6 4.8 4.9 4.9 4.8 4.6 4.3 4.1 3.9 3.9 3.9 3.9
7.9 7.8 7.4 7.1 6.4 6.5 6.5 6.4 5.8 5.9 5.8 5.5 5.0 5.0 5.0 5.0 5.3 5.0 5.6 5.3 5.0 4.8 4.6 4.4 4.1 3.9 3.9 3.9 4.3 4.4 4.3 4.5 4.7 4.9 4.8 4.7 4.5 4.3 4.1 3.9 3.8 3.8 4.1
8.1 8.1 7.7 7.2 7.4 6.3 6.9 6.5 6.2 5.9 5.7 5.2 5.1 5.2 5.2 5.7 5.7 5.5 5.4 5.2 4.9 4.6 4.4 3.9 3.7 3.9 4.0 4.3 4.4 4.3 4.4 4.5 4.5 4.5 4.5 4.4 4.2 3.9 3.7 3.8 3.9 3.9 4.1
8.2 8.2 8.0 6.9 7.7 6.8 6.7 6.7 5.8 5.7 5.4 5.1 5.2 5.4 5.2 5.5 5.8 5.7 5.5 5.0 4.7 4.5 3.8 3.6 3.9 4.1 4.2 4.4 4.3 4.5 4.7 4.7 4.5 4.4 4.3 4.2 3.9 3.8 3.8 4.0 4.2 4.5 4.6
8.1 7.6 7.4 7.2 7.3 6.8 6.5 6.0 5.4 5.2 5.4 5.4 5.4 5.4 5.5 5.5 5.8 5.5 5.2 4.8 4.6 4.1 3.9 4.0 4.0 4.0 4.3 4.7 4.9 4.9 4.8 4.5 4.2 4.3 4.0 3.9 4.0 4.2 4.5 4.5 4.7 4.8 5.0
7.6 7.1 6.9 6.8 6.8 6.7 6.4 6.0 5.7 5.4 5.4 5.5 5.3 5.6 5.6 5.8 5.5 5.3 5.0 4.9 4.5 4.2 4.0 4.1 4.2 4.4 4.8 4.9 4.9 4.9 4.7 4.3 4.4 4.4 4.1 4.1 4.4 4.6 4.8 5.0 5.1 5.3 5.5
7.1 6.9 7.0 6.8 6.6 6.6 6.5 6.3 5.9 5.5 5.7 5.5 5.4 5.3 5.8 5.8 5.3 5.0 4.7 4.6 4.3 4.0 4.0 4.0 4.2 4.6 4.9 4.9 5.0 5.0 4.8 4.9 4.6 4.5 4.3 4.4 4.5 4.6 4.8 5.0 5.3 5.5 5.6
6.9 6.6 6.8 6.8 6.7 6.7 6.5 6.0 5.6 5.7 5.7 5.6 5.7 5.5 5.7 5.4 5.1 4.6 4.5 4.3 3.9 3.6 3.9 4.2 4.4 4.6 5.0 5.1 5.2 5.1 5.0 4.9 4.6 4.5 4.5 4.5 4.6 4.9 5.0 5.2 4.8 4.8 5.0
6.6 6.7 6.8 6.7 6.5 6.5 6.2 5.9 5.6 5.5 5.9 5.8 5.7 5.7 5.6 5.5 4.7 4.6 4.6 4.1 3.9 4.0 4.2 4.5 4.6 4.8 5.2 5.3 5.3 5.1 5.1 5.0 4.8 4.7 4.7 4.8 4.8 4.7 4.7 4.7 4.7 4.6 4.6
6.5 6.4 6.5 6.6 6.4 6.4 6.2 6.0 5.9 5.9 5.8 5.7 5.8 5.7 5.4 4.9 4.8 4.8 4.1 3.9 4.2 4.4 4.6 4.7 4.9 5.1 5.4 5.5 5.4 5.3 5.2 5.1 4.9 4.8 4.8 5.0 4.5 4.4 4.7 4.7 4.7 4.5 4.2
6.7 6.5 6.7 6.2 6.0 6.0 5.9 5.7 6.1 5.8 5.7 5.8 5.6 5.5 5.1 5.0 4.7 4.0 3.9 4.0 4.4 4.7 4.9 5.0 5.2 5.4 5.4 5.5 5.5 5.3 5.2 5.1 5.0 4.9 4.9 4.8 4.6 4.6 4.7 4.7 4.4 4.5 4.3
6.8 6.2 5.9 5.9 5.9 5.8 6.0 6.0 5.9 5.8 5.8 5.7 5.4 5.2 5.1 4.9 4.2 3.9 4.0 4.2 4.7 5.0 5.1 5.2 5.3 5.4 5.6 5.6 5.6 5.5 5.2 5.1 5.0 4.9 4.9 4.8 4.7 4.8 4.8 4.6 4.3 4.2 4.2
6.1 6.1 6.2 6.2 5.9 6.1 6.0 5.8 5.9 5.6 5.6 5.4 5.4 5.1 4.6 4.4 4.3 4.1 4.1 4.5 4.9 5.1 5.2 5.4 5.4 5.5 5.6 5.8 5.8 5.6 5.1 5.0 5.0 4.9 4.8 4.9 4.7 4.9 4.3 4.4 4.3 4.1 4.3
5.8 5.9 6.0 6.0 5.9 6.1 5.8 5.8 5.6 5.6 5.5 5.4 4.9 4.7 4.7 4.5 4.1 4.3 4.5 4.8 5.0 5.1 5.2 5.4 5.5 5.6 5.7 5.7 5.4 4.9 4.6 4.7 4.9 5.0 4.9 5.1 4.9 4.7 4.6 4.6 4.3 4.2 4.4
5.7 5.6 5.5 5.8 5.7 5.3 5.7 5.6 5.7 5.7 5.6 5.4 4.8 4.6 4.6 4.2 4.3 4.9 5.0 5.1 5.2 5.2 5.4 5.6 5.6 5.5 5.5 5.1 4.7 4.5 4.4 4.5 4.9 5.1 5.1 5.3 5.3 5.1 4.8 4.6 4.5 4.4 4.6
Wind_Speed
14 13 12 12 13 12 11 11 11 11 11 9 8 8 8 8 8 7 6 6 5 5 4 5 6 4 4 4 4 4 5 4 3 3 4 6 7 7 8 12 13 13 16
13 13 13 11 13 13 12 13 13 12 11 11 10 9 9 8 8 8 6 6 5 5 5 5 5 4 5 4 5 5 5 5 4 5 5 5 5 8 7 6 7 8 8
14 14 12 13 14 14 14 14 13 12 11 9 8 8 8 8 7 6 6 6 4 4 5 5 5 4 4 4 4 5 5 5 5 5 5 5 4 6 7 5 6 5 3
14 13 14 15 16 15 14 14 14 13 12 11 10 8 7 7 7 7 7 7 6 5 5 5 4 4 5 5 4 4 3 4 4 5 5 5 4 5 4 5 5 5 5
14 14 15 14 15 15 13 13 13 14 13 12 10 9 8 6 5 6 6 6 6 5 4 4 4 3 2 1 1 2 2 4 4 6 6 6 5 6 6 5 6 6 5
15 14 13 14 14 14 13 13 11 12 12 12 11 9 8 4 8 7 7 6 5 5 5 3 3 4 6 5 3 2 0 2 3 5 5 6 5 5 5 6 6 6 6
12 11 13 14 13 11 9 11 12 12 11 10 9 8 6 6 9 9 6 4 5 3 2 3 4 2 4 6 4 4 5 4 4 4 5 6 6 4 6 7 5 6 6
13 12 13 14 15 13 11 8 7 8 11 10 9 9 8 5 8 9 7 3 3 2 2 2 2 3 3 5 6 7 7 6 4 4 5 8 8 7 7 7 8 8 8
13 14 15 17 17 18 18 13 10 8 7 8 9 9 8 7 9 9 7 5 4 2 1 1 3 3 4 3 5 7 7 6 5 9 11 15 16 17 14 7 7 7 8
14 15 18 19 18 14 13 15 12 11 10 7 8 7 6 7 8 9 6 3 4 3 3 2 3 3 2 1 2 4 7 8 9 11 11 11 14 12 14 12 8 8 8
11 15 20 2 5 5 11 12 11 9 8 7 9 7 7 6 6 6 5 4 3 3 3 3 2 1 3 3 5 7 9 9 12 11 10 9 7 6 5 6 7 7 8
13 13 13 6 7 5 13 12 11 10 9 8 7 6 6 6 6 7 8 7 3 4 4 3 4 6 7 7 7 8 9 10 10 10 9 8 7 7 5 4 5 8 11
5 12 14 15 12 10 11 12 8 9 8 7 6 4 5 5 6 8 9 9 8 5 4 4 7 8 9 9 12 10 10 8 7 8 8 7 6 5 7 7 7 8 12
8 10 12 14 13 12 9 9 8 9 8 5 6 6 5 5 5 6 7 7 8 7 7 6 6 8 10 11 9 7 5 5 6 6 6 6 6 7 7 7 8 8 7
9 8 9 9 10 10 7 7 8 8 9 8 7 6 6 6 7 6 6 6 6 3 4 6 7 7 7 7 5 5 4 4 4 4 5 7 8 9 9 7 5 6 8
10 8 8 9 8 9 8 6 11 6 10 8 8 5 5 4 7 9 8 5 3 7 5 7 8 7 7 6 6 6 5 4 4 5 7 8 9 7 5 6 6 6 7
11 10 9 9 9 9 10 10 9 6 9 8 9 8 5 9 8 8 8 6 4 5 6 8 8 6 5 5 6 6 6 5 5 6 8 7 5 6 7 6 6 6 7
10 12 11 10 11 11 10 10 9 10 6 5 4 2 5 7 7 6 6 4 4 4 7 7 5 5 5 6 6 7 6 5 5 7 6 6 5 5 6 6 6 6 7
9 8 8 9 10 11 10 10 10 7 7 6 4 4 4 5 2 3 6 5 6 5 4 4 4 5 5 6 6 5 4 5 6 5 6 5 4 5 6 6 6 7 9
8 11 9 8 9 10 10 10 8 8 6 5 7 7 6 4 5 5 3 3 3 3 3 4 4 5 6 6 5 4 5 6 5 4 4 4 4 4 5 6 7 8 8
6 8 13 10 10 10 10 11 8 7 7 7 6 5 3 5 3 2 2 2 2 1 3 4 4 5 5 4 5 6 6 5 4 3 4 4 4 4 4 5 7 8 8
7 7 9 10 10 9 10 8 8 9 8 7 6 5 8 5 3 3 3 3 2 2 2 3 4 4 4 5 5 6 4 4 4 5 4 4 4 4 4 6 7 8 8
7 7 9 9 8 10 10 7 7 9 8 7 6 6 5 4 4 3 4 2 2 1 2 3 4 5 6 7 6 3 4 4 4 4 4 4 4 4 4 7 8 8 8
8 8 9 10 8 7 7 7 5 8 7 7 7 5 4 4 3 5 4 3 2 1 3 3 4 6 7 8 7 4 5 6 6 4 5 5 5 5 6 9 8 10 9
7 7 8 8 10 9 9 6 7 9 8 7 5 4 4 3 5 5 4 3 2 2 3 4 6 9 9 11 7 5 5 7 7 4 5 6 7 10 9 9 10 11 9
7 7 6 7 7 8 8 7 8 9 8 6 5 5 4 4 5 5 4 3 2 3 3 5 8 11 11 9 6 9 6 5 5 6 6 6 7 8 9 11 12 9 13
Wind_Direction
198 195 197 197 189 180 175 176 173 164 162 157 153 148 142 142 143 133 122 125 114 98 79 83 77 56 56 51 47 40 35 5 328 68 26 32 33 27 31 29 25 36 41
189 190 194 191 183 179 172 173 169 166 163 160 154 152 154 152 149 144 144 137 132 119 105 104 98 88 74 59 69 58 63 45 28 34 24 17 19 6 4 17 26 53 59
185 187 187 185 183 177 173 170 168 158 157 153 150 152 154 152 148 148 147 144 132 117 122 125 115 110 93 87 76 76 62 50 40 30 20 10 358 7 350 2 355 10 54
187 189 186 185 182 175 169 165 163 159 157 156 158 159 161 159 159 164 164 155 139 127 131 131 140 141 128 127 104 96 82 34 37 15 6 360 350 360 340 355 344 353 341
184 188 190 180 172 162 156 161 164 162 159 156 155 156 156 159 174 176 166 156 145 142 137 143 150 151 158 157 88 86 33 16 3 355 356 345 355 351 356 339 327 331 310
187 190 177 166 159 150 145 157 166 160 156 158 156 154 155 161 131 154 163 159 162 164 162 185 207 215 220 224 211 203 27 342 352 340 342 349 338 324 337 338 333 346 336
184 173 167 154 136 126 131 160 175 158 150 147 144 145 144 141 146 146 154 167 173 182 233 257 255 240 246 245 202 191 227 250 263 300 307 318 306 306 312 310 334 314 315
170 157 148 135 124 124 135 147 173 152 149 155 148 141 141 136 140 145 157 180 167 154 59 27 356 331 320 271 248 252 258 258 251 282 283 289 278 283 275 282 295 293 275
155 147 146 142 143 152 158 164 161 148 138 139 151 148 145 146 139 147 172 170 158 158 201 240 331 333 12 291 257 270 283 289 221 234 263 273 269 262 258 278 267 276 293
164 162 158 160 164 173 164 152 147 157 151 161 142 142 146 153 148 167 181 188 191 197 226 261 215 323 357 265 261 285 284 290 300 305 297 274 252 257 236 239 267 272 286
103 72 7 45 125 142 156 145 130 138 138 143 141 147 151 170 169 172 176 209 209 212 271 300 323 284 289 252 244 268 276 306 299 293 292 290 290 276 265 234 250 263 273
127 116 114 199 285 143 136 138 136 145 152 152 144 149 179 162 185 178 194 250 207 261 290 297 296 315 304 296 285 281 284 289 286 286 289 296 304 309 321 323 293 258 265
156 131 173 164 175 175 151 143 140 155 161 171 162 164 177 162 184 184 200 215 213 246 274 312 297 279 277 278 249 271 282 276 283 285 293 298 305 317 310 299 295 300 286
145 158 170 142 151 157 147 148 157 172 173 158 163 186 167 161 192 203 208 213 225 239 243 264 287 289 282 274 291 272 277 284 287 289 295 301 300 308 310 315 319 335 318
165 155 135 124 138 131 132 147 169 181 179 173 188 178 174 186 206 200 198 202 220 232 287 265 277 279 295 305 305 306 303 296 285 300 299 307 309 312 322 358 322 312 306
136 136 137 135 147 137 133 123 41 125 139 130 139 166 192 67 142 168 178 192 148 159 251 275 288 302 303 314 320 323 321 310 322 313 314 315 321 338 319 307 300 287 309
143 139 141 144 152 152 163 168 164 82 73 84 128 147 135 155 159 157 181 197 189 178 264 282 293 302 311 320 321 320 320 335 320 313 319 345 318 314 305 307 316 324 313
150 141 154 157 167 161 165 166 163 161 150 149 120 115 138 123 115 134 153 159 241 228 263 283 296 315 324 323 323 321 319 318 309 328 337 318 320 309 317 316 316 316 313
147 154 155 168 170 160 159 165 165 151 151 138 132 150 149 95 118 147 170 254 279 287 288 289 316 325 328 322 323 315 317 314 326 332 320 316 314 308 297 297 311 311 301
156 161 152 170 162 159 165 165 160 153 141 154 173 181 161 165 208 213 209 219 245 280 317 314 334 336 330 323 320 315 306 316 335 324 311 297 295 286 283 309 315 310 303
157 166 164 169 171 171 170 166 159 148 162 179 179 184 124 216 239 238 202 183 197 327 333 328 344 335 324 327 318 315 323 327 300 298 285 293 307 304 301 297 298 299 299
165 167 173 178 175 162 161 150 155 169 175 182 180 171 166 217 240 189 157 154 118 54 347 338 346 341 339 332 323 329 316 295 298 284 293 286 289 297 298 290 290 293 287
153 154 174 168 166 149 145 139 156 173 177 178 179 182 188 204 188 161 151 128 97 62 357 4 352 343 344 332 336 311 288 290 293 305 295 286 286 286 284 288 289 291 287
149 153 170 164 140 130 135 132 141 170 175 174 174 181 196 182 162 151 147 132 108 66 22 8 353 351 339 339 333 308 292 285 291 294 286 292 299 292 282 288 291 284 285
144 147 154 158 153 145 138 138 166 164 165 167 172 173 169 158 159 155 142 129 99 52 30 354 352 346 344 333 339 328 312 278 272 325 288 287 292 286 285 290 297 300 287
125 130 137 149 146 141 135 149 157 154 160 163 164 163 152 168 162 151 146 128 107 68 15 6 355 348 349 345 348 325 302 253 246 252 285 291 287 286 291 300 306 297 301